[[{"header":{"parameterUnit":"m.s-1","parameterCategory":1,"la1":30.2991,"la2":30.254,"lo1":-89.0895,"lo2":-89.0444,"dy":0.0017,"dx":0.0017,"nx":28,"ny":28,"refTime":"2025-07-13T03:00:00:Z","depth":0,"parameterNumber":2,"parameterNumberName":"U-component_of_WINDS"},"data":[0,0,0,0,0,0,0,0,0,0,0,0,0,0,0,0,0,0,0,0,0,0,0,0,0,0,0,0,0,0,0,0,0,0,0,0,0,0,0,0,0,0,0,0,0,0,0,0,0,0,0,0,0,0,0,0,0,0,0.6596,0.6598,0,0.6727,0.6728,0.673,0.6783,0.6783,0.6782,0.6782,0.6915,0.6919,0.6923,0,0,0,0,0,0,0,0,0,0,0,0,0,0.6391,0.6394,0.6596,0.6598,0.6599,0.6727,0.6728,0.673,0.6783,0.6783,0.6782,0.6782,0.6914,0.6919,0.6923,0,0,0,0,0,0,0,0,0,0,0,0,0,0.6496,0.6395,0.6596,0.6641,0.6646,0.6726,0.6728,0.6731,0.6783,0.6783,0.6782,0.6782,0.6913,0.6918,0.6924,0.6968,0,0,0.6941,0.6944,0,0,0,0,0,0,0,0,0.649,0.6504,0.6633,0.6638,0.6644,0.6738,0.6705,0.681,0.6783,0.6731,0.6782,0.6782,0.6857,0.6867,0.6892,0.6974,0.698,0.6942,0.6945,0.6948,0.6949,0,0,0,0,0,0,0,0.6483,0.6499,0.6648,0.6635,0.6642,0.6654,0.6669,0.6725,0.6795,0.6736,0.674,0.6755,0.686,0.6887,0.6896,0.6982,0.6942,0.6947,0.695,0.6953,0.7105,0.7106,0,0,0,0,0,0,0.6468,0.6492,0.6644,0.6652,0.6565,0.6658,0.6675,0.6708,0.6794,0.6807,0.6755,0.6757,0.6877,0.6889,0.6901,0.6958,0.6948,0.6953,0.6956,0.7105,0.7106,0.7106,0,0,0,0,0,0,0.6464,0.6481,0.6638,0.6573,0.6594,0.6662,0.67,0.6711,0.6738,0.6809,0.6821,0.677,0.6877,0.6893,0.6951,0.6963,0.6956,0.6961,0.7104,0.7105,0.7106,0.7072,0,0,0,0,0,0,0.6458,0.6479,0.6497,0.6573,0.6597,0.6686,0.6701,0.6714,0.6748,0.6752,0.6826,0.6838,0.6878,0.6942,0.6956,0.6971,0.6965,0.7103,0.7104,0.7106,0.7072,0.7072,0.7071,0,0,0,0,0,0.645,0.6483,0.6498,0.6516,0.6621,0.6687,0.6701,0.6746,0.6749,0.6767,0.6812,0.6836,0.6959,0.6947,0.6964,0.6981,0.7103,0.7104,0.7106,0.7073,0.7072,0.7071,0,0,0,0,0,0,0.6406,0.6493,0.6511,0.657,0.662,0.6696,0.672,0.6744,0.6795,0.6797,0.6851,0.6867,0.692,0.6956,0.6941,0.7027,0.7033,0.7038,0.7002,0.7002,0.7001,0.6991,0.697,0,0,0,0,0,0.6403,0.645,0.6523,0.6568,0.6592,0.6652,0.6682,0.6713,0.6768,0.6789,0.6839,0.6891,0.6941,0.6974,0.7024,0.7078,0.7094,0.7097,0.7096,0.7096,0.7099,0.7129,0.7131,0.7111,0.7111,0.7111,0,0,0.6398,0.6451,0.6477,0.656,0.6603,0.665,0.6669,0.6718,0.6753,0.6797,0.6854,0.6892,0.6954,0.7009,0.7036,0.7041,0.7108,0.7097,0.7096,0.71,0.7131,0.7133,0.7135,0.7112,0.7112,0.7111,0,0,0.6412,0.6457,0.6499,0.6541,0.6606,0.6645,0.6655,0.6727,0.6754,0.6812,0.6846,0.6888,0.6974,0.7016,0.7049,0.7077,0.7101,0.7092,0.7089,0.7118,0.712,0.7121,0.7131,0.7134,0.7095,0.7095,0.7095,0,0.6397,0.6469,0.6517,0.6563,0.6598,0.664,0.6682,0.6721,0.6799,0.6821,0.6825,0.6934,0.6978,0.7044,0.7051,0.7076,0.7088,0.7084,0.7115,0.7118,0.712,0.713,0.7133,0.7094,0.7094,0.7094,0.7094,0,0.6447,0.6496,0.6521,0.6596,0.6633,0.6677,0.6731,0.6764,0.6791,0.6829,0.6888,0.6942,0.7004,0.7022,0.7049,0.7091,0.7092,0.7105,0.7112,0.712,0.713,0.7134,0.7092,0.7092,0.7093,0.7093,0,0,0.6437,0.6537,0.6545,0.6579,0.6654,0.6692,0.6737,0.6798,0.6824,0.6876,0.6915,0.6987,0.6999,0.7036,0.7068,0.7093,0.7111,0.7103,0.7105,0.7102,0.7161,0.715,0.7154,0.7127,0.7128,0.7129,0.7155,0,0.6461,0.6545,0.6589,0.6653,0.6699,0.6738,0.6778,0.6827,0.6864,0.6907,0.6948,0.6997,0.701,0.7032,0.7059,0.7103,0.7124,0.7102,0.7163,0.7165,0.7147,0.716,0.7149,0.7172,0.716,0.7161,0.7161,0,0.65,0.6551,0.662,0.6689,0.6709,0.6744,0.6803,0.6844,0.69,0.6925,0.6966,0.6997,0.7046,0.7048,0.7115,0.71,0.7127,0.7152,0.7154,0.7162,0.7164,0.7167,0.7181,0.7184,0.7168,0.7167,0.7167,0,0.6486,0.6572,0.6625,0.6652,0.6733,0.6757,0.6791,0.6847,0.6881,0.6931,0.6953,0.7009,0.704,0.7082,0.7127,0.7125,0.7189,0.7196,0.7211,0.721,0.7224,0.7222,0.7241,0.7241,0.7241,0.7241,0.7241,0,0.6507,0.6548,0.6619,0.6651,0.6698,0.6748,0.6792,0.683,0.6879,0.6918,0.6956,0.6992,0.705,0.7093,0.7128,0.7178,0.7192,0.7213,0.7222,0.721,0.7207,0.7229,0.7229,0.7242,0.7242,0.7241,0.7241,0,0.65,0.6549,0.6609,0.668,0.6699,0.673,0.6791,0.6823,0.6862,0.6911,0.6926,0.6986,0.7039,0.7088,0.7158,0.7182,0.7232,0.7244,0.7213,0.7218,0.7231,0.7229,0.7265,0.7272,0.7266,0.7266,0.7266,0,0.651,0.6543,0.6617,0.6647,0.6681,0.6728,0.6762,0.6812,0.6845,0.6911,0.6936,0.6991,0.7038,0.7121,0.717,0.7224,0.7237,0.7246,0.7246,0.7232,0.7237,0.7235,0.7238,0.7245,0.7245,0.7245,0.7245,0,0.6524,0.6547,0.6595,0.6651,0.669,0.6737,0.6785,0.6807,0.6865,0.6901,0.6956,0.6992,0.7064,0.7118,0.7177,0.7213,0.7238,0.7244,0.7251,0.7239,0.722,0.723,0.7211,0.7243,0.7244,0.7244,0.7244,0.7244,0.6526,0.6556,0.6613,0.6665,0.6706,0.675,0.6784,0.6826,0.6872,0.6935,0.6961,0.7016,0.7071,0.7153,0.7188,0.7231,0.7237,0.7246,0.7248,0.725,0.7247,0.7212,0.7242,0.7242,0.7242,0.7242,0.7242,0,0.6541,0.658,0.6627,0.6693,0.6733,0.6754,0.6807,0.684,0.6888,0.6937,0.6982,0.7044,0.7097,0.715,0.7206,0.723,0.7243,0.7243,0.7242,0.725,0.7239,0.7228,0.7232,0.7232,0.7232,0.7232,0.7232,0.7232,0.6554,0.6606,0.6635,0.6708,0.6746,0.6801,0.6829,0.6869,0.6909,0.6976,0.702,0.7055,0.7105,0.7165,0.7214,0.7228,0.7247,0.7243,0.7261,0.725,0.725,0.7251,0.7241,0.7247,0.7247,0.7268,0.7268,0.7268]},{"header":{"parameterUnit":"m.s-1","parameterCategory":1,"la1":30.2991,"la2":30.254,"lo1":-89.0895,"lo2":-89.0444,"dy":0.0017,"dx":0.0017,"nx":28,"ny":28,"refTime":"2025-07-13T03:00:00:Z","depth":0,"parameterNumber":3,"parameterNumberName":"V-component_of_WINDS"},"data":[0,0,0,0,0,0,0,0,0,0,0,0,0,0,0,0,0,0,0,0,0,0,0,0,0,0,0,0,0,0,0,0,0,0,0,0,0,0,0,0,0,0,0,0,0,0,0,0,0,0,0,0,0,0,0,0,0,0,4.1247,4.1246,0,4.1172,4.1171,4.117,4.1096,4.1095,4.1094,4.1093,4.1013,4.1012,4.1011,0,0,0,0,0,0,0,0,0,0,0,0,0,4.1321,4.132,4.1247,4.1246,4.1245,4.1172,4.1171,4.117,4.1096,4.1095,4.1094,4.1093,4.1013,4.1012,4.101,0,0,0,0,0,0,0,0,0,0,0,0,0,4.1272,4.132,4.1247,4.1199,4.1194,4.1172,4.1171,4.117,4.1097,4.1095,4.1094,4.1092,4.1014,4.1012,4.101,4.1028,0,0,4.1005,4.1004,0,0,0,0,0,0,0,0,4.1275,4.1269,4.1207,4.1203,4.1197,4.1142,4.1168,4.1122,4.1097,4.1134,4.1093,4.1092,4.1057,4.1051,4.104,4.1024,4.1021,4.1004,4.1003,4.1002,4.1002,0,0,0,0,0,0,0,4.1279,4.1272,4.1217,4.1206,4.12,4.1181,4.1172,4.1159,4.1104,4.113,4.1125,4.1117,4.1054,4.1042,4.1038,4.102,4.1004,4.1003,4.1002,4.1001,4.1014,4.1015,0,0,0,0,0,0,4.129,4.1276,4.1219,4.1215,4.1233,4.118,4.1171,4.1161,4.1104,4.1094,4.1119,4.1114,4.1046,4.104,4.1035,4.1052,4.1002,4.1001,4.1,4.1012,4.1014,4.1016,0,0,0,0,0,0,4.1292,4.1285,4.1222,4.1244,4.1234,4.1181,4.117,4.116,4.1149,4.1095,4.1085,4.1117,4.1045,4.1037,4.103,4.1048,4.1,4.0998,4.1011,4.1013,4.1015,4.1086,0,0,0,0,0,0,4.1294,4.1287,4.1294,4.1244,4.1233,4.1221,4.1171,4.116,4.1147,4.114,4.1091,4.1082,4.1043,4.1034,4.1029,4.1045,4.0997,4.1009,4.1012,4.1014,4.1082,4.1091,4.1098,0,0,0,0,0,4.1297,4.1316,4.1294,4.1288,4.1241,4.1222,4.1215,4.1172,4.1148,4.1154,4.112,4.1083,4.1047,4.1034,4.1027,4.1043,4.1008,4.1011,4.1014,4.1079,4.1089,4.1098,0,0,0,0,0,0,4.1367,4.1308,4.1284,4.1288,4.1261,4.1209,4.1216,4.1184,4.1162,4.1156,4.1102,4.1091,4.1091,4.1066,4.1052,4.1057,4.1022,4.1024,4.1073,4.1083,4.1091,4.1096,4.0995,0,0,0,0,0,4.1383,4.1373,4.1322,4.133,4.1318,4.127,4.1259,4.1228,4.1197,4.1185,4.115,4.112,4.1102,4.1091,4.1071,4.1078,4.1066,4.1086,4.1094,4.1101,4.1103,4.1105,4.1113,4.1027,4.1027,4.1026,0,0,4.1415,4.1382,4.1379,4.1343,4.1319,4.1309,4.126,4.1252,4.1243,4.1183,4.1175,4.1148,4.1111,4.1112,4.111,4.1091,4.1124,4.1105,4.1111,4.1109,4.1109,4.1117,4.1125,4.1029,4.1028,4.1028,0,0,4.1469,4.1444,4.1448,4.1424,4.1388,4.1356,4.1357,4.1311,4.1292,4.1283,4.1237,4.1226,4.1196,4.1172,4.1155,4.1202,4.1167,4.1197,4.1238,4.124,4.1247,4.1253,4.1269,4.1275,4.1199,4.1199,4.1199,0,4.1514,4.1499,4.1453,4.1448,4.1434,4.138,4.1383,4.1362,4.1321,4.1312,4.1291,4.1253,4.1224,4.1218,4.123,4.1218,4.1217,4.1202,4.125,4.1255,4.126,4.1275,4.1281,4.1203,4.1203,4.1202,4.1202,0,4.1555,4.1545,4.1553,4.1516,4.1502,4.1501,4.1455,4.1446,4.1416,4.1386,4.1377,4.1342,4.1314,4.131,4.128,4.13,4.1289,4.126,4.1224,4.1273,4.1286,4.1291,4.1209,4.1207,4.1206,4.1205,0,0,4.1651,4.159,4.1593,4.1576,4.1533,4.1523,4.152,4.1494,4.1487,4.1461,4.1456,4.1432,4.1405,4.1387,4.1354,4.1356,4.1395,4.1327,4.1325,4.1341,4.1414,4.1436,4.1444,4.1372,4.1373,4.1374,4.1417,0,4.1697,4.1689,4.1648,4.1651,4.1641,4.1591,4.1588,4.156,4.1532,4.1518,4.1486,4.147,4.1436,4.1425,4.1425,4.1391,4.1409,4.1387,4.1366,4.1366,4.1377,4.145,4.1473,4.1516,4.1422,4.1423,4.1423,0,4.175,4.1729,4.1732,4.1689,4.1683,4.1681,4.1654,4.1643,4.161,4.1589,4.157,4.1533,4.1525,4.1492,4.148,4.1466,4.1455,4.1437,4.1437,4.1433,4.1397,4.1448,4.1528,4.1535,4.1431,4.143,4.143,0,4.182,4.1791,4.1789,4.1776,4.1726,4.1726,4.1705,4.1671,4.1658,4.1635,4.1626,4.1601,4.1587,4.1569,4.1526,4.1506,4.1519,4.1482,4.15,4.1502,4.1505,4.1505,4.1585,4.1499,4.1499,4.1499,4.1498,0,4.1876,4.1879,4.182,4.1819,4.1821,4.1774,4.1777,4.1751,4.1722,4.1714,4.1668,4.1661,4.1605,4.1592,4.1558,4.1554,4.1548,4.153,4.1521,4.1534,4.1536,4.1526,4.1521,4.15,4.15,4.15,4.1499,0,4.1953,4.1914,4.1908,4.1862,4.1851,4.1854,4.1814,4.181,4.178,4.177,4.1765,4.1716,4.1698,4.1654,4.1624,4.1601,4.1605,4.1589,4.1617,4.1611,4.1632,4.1631,4.1707,4.1715,4.1625,4.1626,4.1626,0,4.1992,4.1994,4.1948,4.194,4.1922,4.1909,4.1897,4.185,4.1839,4.1802,4.1803,4.1781,4.1762,4.1735,4.1696,4.1673,4.1655,4.1684,4.1651,4.1664,4.1655,4.1656,4.1656,4.1691,4.1692,4.1693,4.1694,0,4.2064,4.2045,4.2029,4.2007,4.1993,4.1973,4.195,4.1946,4.1893,4.1883,4.1864,4.1849,4.1819,4.1798,4.1769,4.1746,4.1711,4.1704,4.1707,4.1721,4.1737,4.1728,4.1636,4.1703,4.1702,4.1701,4.1701,4.17,4.2123,4.2122,4.2091,4.2075,4.2053,4.2033,4.2027,4.1997,4.1981,4.1954,4.1927,4.1912,4.1879,4.1836,4.1816,4.1802,4.1784,4.1788,4.1789,4.1791,4.1797,4.174,4.1796,4.1796,4.1796,4.1796,4.1795,0,4.2193,4.217,4.2156,4.2126,4.2114,4.2084,4.2057,4.2048,4.2035,4.2008,4.199,4.197,4.1949,4.1909,4.1885,4.1882,4.1865,4.1877,4.1877,4.1872,4.1814,4.1814,4.1891,4.1891,4.1891,4.1891,4.1891,4.1891,4.2228,4.2225,4.2202,4.2188,4.2165,4.2151,4.2138,4.2119,4.2097,4.2077,4.206,4.2035,4.2002,4.1976,4.1955,4.1944,4.1937,4.1954,4.1938,4.1885,4.1876,4.1867,4.1867,4.1953,4.1953,4.1996,4.1996,4.1997]}]]